Tracking 20382 objects as of 24-Feb-2020
HD Live streaming from Space Station
objects crossing your sky now
Track the group of recently launched Starlink satellites

TELSTAR 302

Track TELSTAR 302 now!
TELSTAR 302 is classified as:


NORAD ID: 15237
Int'l Code: 1984-093D
Perigee: 35,909.4 km
Apogee: 35,955.9 km
Inclination: 15.2 °
Period: 1,443.2 minutes
Semi major axis: 42303 km
RCS: 4.6276 m2 (large)
Launch date: August 30, 1984
Source: United States (US)
Launch site: AIR FORCE EASTERN TEST RANGE (AFETR)
aabbcc
Your satellite tracking list
Your tracking list is empty




NASA's NSSDC Master Catalog

Two Line Element Set (TLE):
1 15237U 84093D   20054.79510215 -.00000319 +00000-0 +00000-0 0  9997
2 15237 015.2069 004.0312 0005499 023.7218 164.3489 00.99778349023458
Source of the keplerian elements: AFSPC